GPS BIII-1 (43873 NORAD) Tracking and Keplerian Element Data

This shows tracking and keplerian element data for the satellite.

Feedback or suggestion? Click here.




ElementValue
Catalog43873
NameGPS BIII-1
Epoch Orbit4279
Epoch Day286.77810709
Epoch Year2024
RAAN116.3798
Inclination55.3438
Eccentricity0.0031274
Argument of Perigee191.8011
Mean Anonmoly182.1833
Mean Motion2.00560505
Decay Rate8.5E-07
L11 43873U 18109A 24286.77810709 .00000085 00000+0 00000+0 0 9996
L22 43873 55.3438 116.3798 0031274 191.8011 182.1833 2.00560505 42799



Live tracking and technical data element details for GPS BIII-1 (NORAD 43873). GPS BIII-1 can be tracked NOW for your location showing map with azimuth and elevation plus other details from your city location.







IsCatalogInMostPopularTable: catalog: 43873, numindb: 1493
Update: records affected: 1



GetName: 43873 GPS BIII-1

Hit Count: updated at: Wed, 04 Dec 2024 20:59:15 GMT